Cherokee, North Carolina, United States (28719)
Lat: 35.47N, Lon: 83.31W
Wx Zone: NCZ051
Local Info
Past Weather Observations for Today

NOTE: This archive is for the closest National Weather Service station to Cherokee. Information may differ from the station used for current weather conditions.

Click here for Long-term Archive

Time Weather Temperature Dewpoint Humidity Pressure Winds Precip Visibility
10:15
Fair
41°F / 5°C 41°F / 5°C 100% 29.98 in
(1015 mb)
Calm - 10SM
09:55
Fair
39°F / 4°C 39°F / 4°C 100% 29.98 in
(1015 mb)
Calm - 10SM
09:35
Fair
37°F / 3°C 36°F / 2°C 93% 29.98 in
(1015 mb)
Calm - 10SM
09:15
Fair
36°F / 2°C 36°F / 2°C 100% 30.01 in
(1016 mb)
Calm - 7SM
08:55
Fog And Mist
34°F / 1°C 34°F / 1°C 100% 30.01 in
(1016 mb)
Calm - 3/4SM
08:35
Fog
34°F / 1°C 32°F / 0°C 93% 30.01 in
(1016 mb)
Calm - 1/4SM
08:15
Fog And Mist
32°F / 0°C 32°F / 0°C 100% 30.01 in
(1016 mb)
Calm - 4SM
07:55
Fog And Mist
32°F / 0°C 32°F / 0°C 100% 30.01 in
(1016 mb)
Calm - 5SM
07:35
Fog And Mist
30°F / -1°C 30°F / -1°C 100% 30.01 in
(1016 mb)
Calm - 2 1/2SM
07:15
Fog And Mist
30°F / -1°C 30°F / -1°C 100% 30.01 in
(1016 mb)
Calm - 1 1/2SM
06:55
Fog And Mist
30°F / -1°C 30°F / -1°C 100% 30.01 in
(1016 mb)
Calm - 5SM
06:35
Fog And Mist
30°F / -1°C 30°F / -1°C 100% 30.01 in
(1016 mb)
Calm - 1 1/4SM
06:15
Fog
30°F / -1°C 30°F / -1°C 100% 30.01 in
(1016 mb)
Calm - 1/2SM
05:55
Fog
30°F / -1°C 30°F / -1°C 100% 30.01 in
(1016 mb)
Calm - 1/2SM
05:35
Fog
30°F / -1°C 30°F / -1°C 100% 30.01 in
(1016 mb)
Calm - 1/4SM
05:15
Fog
30°F / -1°C 30°F / -1°C 100% 30.01 in
(1016 mb)
Calm - 1/2SM
04:55
Fog And Mist
30°F / -1°C 30°F / -1°C 100% 30.01 in
(1016 mb)
Calm - 1 3/4SM
04:35
Fair
30°F / -1°C 30°F / -1°C 100% 30.01 in
(1016 mb)
Calm - 7SM
04:15
Fair
30°F / -1°C 30°F / -1°C 100% 30.01 in
(1016 mb)
Calm - 10SM
03:55
Fog And Mist
30°F / -1°C 30°F / -1°C 100% 30.01 in
(1016 mb)
Calm - 1 1/4SM
03:35
Fair
30°F / -1°C 30°F / -1°C 100% 30.01 in
(1016 mb)
Calm - 7SM
03:15
Fair
30°F / -1°C 30°F / -1°C 100% 30.01 in
(1016 mb)
Calm - 10SM
02:55
Fair
32°F / 0°C 32°F / 0°C 100% 30.01 in
(1016 mb)
Calm - 10SM
02:35
Fair
32°F / 0°C 32°F / 0°C 100% 30.01 in
(1016 mb)
Calm - 10SM
02:15
Fair
32°F / 0°C 32°F / 0°C 100% 30.01 in
(1016 mb)
Calm - 10SM
01:55
Fair
32°F / 0°C 32°F / 0°C 100% 30.01 in
(1016 mb)
Calm - 10SM
01:35
Fair
32°F / 0°C 32°F / 0°C 100% 30.04 in
(1017 mb)
Calm - 10SM
01:15
Fair
32°F / 0°C 32°F / 0°C 100% 30.04 in
(1017 mb)
Calm - 10SM
00:55
Fair
32°F / 0°C 32°F / 0°C 100% 30.04 in
(1017 mb)
Calm - 10SM
00:35
Fair
34°F / 1°C 34°F / 1°C 100% 30.04 in
(1017 mb)
Calm - 10SM
00:15
Fair
34°F / 1°C 34°F / 1°C 100% 30.04 in
(1017 mb)
Calm - 10SM
Time Weather Temperature Dewpoint Humidity Pressure Winds Precip Visibility


Weather for websites

WeatherForYou.com, LLC is not responsible for any damages or problems caused by this service. Current weather conditions are obtained from the closest station including government and personal stations which may have varying degrees of accuracy. Weather forecasts are derived from the NOAA NDFD. Like all things, this site belongs to Jesus Christ... He just trusts me to maintain it. If you have any questions or comments email webmaster@weatherforyou.com

Copyright © 2014, WeatherForYou.com LLC. All rights reserved.